Location: Waco, TX
(31.5480°N, 97.1670°W)
Time: 09:41:04
(UTC-05:00)

ISS - Pass Details

Date: 19 October 2019
Orbit: 411 x 421 km, 51.6° (Epoch: 18 October)

Event Time Altitude Azimuth Distance (km) Brightness Sun altitude
Rises 16:28:00 0° 315° (NW) 2,344 0.2 27.6°
Reaches altitude 10° 16:30:06 10° 315° (NW) 1,479 -0.7 27.2°
Maximum altitude 16:33:25 87° 228° (SW) 414 -3.3 26.6°
Drops below altitude 10° 16:36:42 10° 137° (SE) 1,468 -1.0 26.0°
Sets 16:38:47 0° 137° (SE) 2,325 -0.1 25.6°
